Location: Alfortville
(48.8058°N, 2.4204°E)
Time: 03:28:18
(UTC+00:00)

Envisat - Pass Details

Date: 28 November 2022
Orbit: 763 x 765 km, 98.2° (Epoch: 28 January)

Event Time Altitude Azimuth Distance (km) Brightness Sun altitude
Rises 05:45:18 0° 2° (N) 3,246 6.1 -14.7°
Reaches altitude 10° 05:48:13 10° 345° (NNW) 2,315 5.2 -14.3°
Enters shadow 05:51:33 19° 304° (NW) 1,781 4.3 -13.7°
